Regional Weather Roundup
Issued by NWS Memphis, TN

Home | Current Version | Previous Version | Text Only | Print | Product List | Glossary On
Versions: 1 2 3 4 5 6 7 8 9 10 11 12 13 14 15 16 17 18 19 20 21 22 23 24 25 26 27 28 29 30 31 32 33 34 35 36 37 38 39 40 41 42 43 44 45 46 47 48 49 50
000
ASUS44 KMEG 180610
RWRMEG
MEMPHIS CWA HOURLY WEATHER ROUNDUP
NATIONAL WEATHER SERVICE MEMPHIS TN
1200 AM CST WED JAN 18 2017

...WEST TENNESSEE...

CITY           SKY/WX    TMP DP  RH WIND       PRES   REMARKS
MEMPHIS INTL   CLOUDY    48  42  80 N7        30.16F
6HR MIN TEMP:  48; 6HR MAX TEMP:  52;

NWS MEMPHIS      N/A     47 N/A N/A MISG        N/A
JACKSON        CLOUDY    46  42  86 N6        30.17F
6HR MIN TEMP:  46; 6HR MAX TEMP:  51;

BOLIVAR        CLOUDY    46  43  87 N5        30.15F
DYERSBURG      CLOUDY    43  37  81 CALM      30.17F
6HR MIN TEMP:  43; 6HR MAX TEMP:  46;

UNION CITY     CLOUDY    45  45 100 CALM      30.16F
PARIS          CLOUDY    41  39  93 CALM      30.16F
HUNTINGDON     CLOUDY    43  41  93 CALM      30.15F


...EASTERN ARKANSAS...

CITY           SKY/WX    TMP DP  RH WIND       PRES   REMARKS
JONESBORO      CLOUDY    42  40  92 NW3       30.19R
6HR MIN TEMP:  42; 6HR MAX TEMP:  46;

WEST MEMPHIS   CLOUDY    46  43  89 NE8       30.16F
6HR MIN TEMP:  46; 6HR MAX TEMP:  51;

BATESVILLE     PTCLDY    39  36  87 W5        30.21F
6HR MIN TEMP:  39; 6HR MAX TEMP:  46;

NEWPORT        CLOUDY    41  38  89 MISG        N/A
6HR MIN TEMP:  41; 6HR MAX TEMP:  46;

WALNUT RIDGE   PTCLDY    39  36  87 NW9       30.19S WCI  33
6HR MIN TEMP:  39; 6HR MAX TEMP:  45;

BLYTHEVILLE    MOCLDY    44  41  89 CALM      30.19S
6HR MIN TEMP:  43; 6HR MAX TEMP:  48;

SEARCY         PTCLDY    45  42  89 N7        30.22R
6HR MIN TEMP:  45; 6HR MAX TEMP:  49;

STUTTGART      CLOUDY    48  39  71 N7        30.20F
6HR MIN TEMP:  48; 6HR MAX TEMP:  52;

PINE BLUFF     CLOUDY    50  45  83 N6        30.20R
6HR MIN TEMP:  50; 6HR MAX TEMP:  54; 6HR PCP: TRACE;

MONTICELLO     LGT RAIN  53  51  93 NW3       30.16S
6HR MIN TEMP:  52; 6HR MAX TEMP:  53; 6HR PCP: TRACE;



...NORTH MISSISSIPPI...

CITY           SKY/WX    TMP DP  RH WIND       PRES   REMARKS
TUPELO         CLOUDY    55  52  89 CALM      30.15S
6HR MIN TEMP:  55; 6HR MAX TEMP:  58; 6HR PCP:  0.03;

OXFORD         CLOUDY    50  46  87 N7        30.17F
BATESVILLE     CLOUDY    51  48  89 CALM      30.16S
6HR MIN TEMP:  51; 6HR MAX TEMP:  56;

TUNICA         MOCLDY    46  43  87 NW7       30.21R
CLARKSDALE     MOCLDY    52  50  93 CALM      30.18R
CORINTH        PTCLDY    52  45  76 N7        30.14F
GREENWOOD      CLOUDY    53  51  93 CALM      30.15S
6HR MIN TEMP:  53; 6HR MAX TEMP:  56; 6HR PCP:  0.13;

STARKVILLE     CLOUDY    57  55  94 CALM      30.16S
GOLDEN TRIANGL CLOUDY    57  54  88 NE5       30.10F
6HR MIN TEMP:  57; 6HR MAX TEMP:  66;



...SOUTHEAST MISSOURI...

CITY           SKY/WX    TMP DP  RH WIND       PRES   REMARKS
KENNETT        MOCLDY    43  41  93 CALM      30.18S
WEST PLAINS    CLOUDY    38  36  92 NW3       30.20R
6HR MIN TEMP:  38; 6HR MAX TEMP:  41;

POPLAR BLUFF   CLOUDY    44  39  82 NW8       30.19S
6HR MIN TEMP:  44; 6HR MAX TEMP:  45;

CAPE GIRARDEAU CLOUDY    44  38  79 NW6       30.18S
6HR MIN TEMP:  44; 6HR MAX TEMP:  45;



...NORTHWEST ALABAMA...

CITY           SKY/WX    TMP DP  RH WIND       PRES   REMARKS
MUSCLE SHOALS  CLOUDY    57  52  83 NW3       30.14F
6HR MIN TEMP:  57; 6HR MAX TEMP:  62;



...MIDDLE TENNESSEE...

CITY           SKY/WX    TMP DP  RH WIND       PRES   REMARKS
NASHVILLE      CLOUDY    51  43  74 NW5       30.14F
6HR MIN TEMP:  51; 6HR MAX TEMP:  60;

CLARKSVILLE    CLOUDY    45  39  79 NW8       30.17S
6HR MIN TEMP:  45; 6HR MAX TEMP:  53;

COLUMBIA       CLOUDY    48  48 100 CALM      30.14S


...WESTERN KENTUCKY...

CITY           SKY/WX    TMP DP  RH WIND       PRES   REMARKS
PADUCAH        CLOUDY    45  39  79 W3        30.17S
6HR MIN TEMP:  45; 6HR MAX TEMP:  45;

FORT CAMPBELL  CLOUDY    44  41  87 NW7       30.16S
6HR MIN TEMP:  44; 6HR MAX TEMP:  51;



...CENTRAL ARKANSAS...

CITY           SKY/WX    TMP DP  RH WIND       PRES   REMARKS
LITTLE ROCK    CLOUDY    46  42  86 NW8       30.21R
6HR MIN TEMP:  46; 6HR MAX TEMP:  50; 6HR PCP: TRACE;



SKY/WX REPORTED AS FAIR MEANS FEW OR NO CLOUDS BELOW
12 THOUSAND FEET.





USA.gov is the U.S. government's official web portal to all federal, state and local government web resources and services.